STARLINK-32083, 60343

Orbit data source: Space-Track

STARLINK-32083, 60343 is a payload satellite owned by SpaceX/Seattle (US) in LEO that was launched on Fri, 02 Aug 2024 UTC via an FALCON 9 launch vehicle from the Air Force Eastern Test Range (AFETR). Payload-class satellites include a variety of spacecraft equipped with specific instruments for various scientific and technological missions. These include communications satellites like Starlink; space stations such as the ISS; scientific satellites like the Hubble; Earth observation satellites from companies like Planet Labs, Umbra, and HawkEye 360; GPS; miniature CubeSats for education and research; and military/defense satellites.

Loading next visibility...
Identifier
60343, 2024-136Q
Orbit
LEO
Last TLE update
5 hours ago
Origin
Manufacturer
SpaceX/Seattle
Mission
Operational Commercial Communications
Bus & Motor
STARLINK V2M, Unknown motor
Mass
730 kg wet, ~700 kg dry
Launch date (UTC)
2024-08-02 (11 months ago)
Launch vehicle
FALCON 9
Launch site
Air Force Eastern Test Range (AFETR)
Object type
Payload
Rocket body
Debris
Shape & HBR
Box + 2 Pan, 29 m
Radar Cross Section
33.884 m², Large (>1 m²)

Expand to show TLE details & history

TLE from 5 hours ago
0 STARLINK-32083
1 60343U 24136Q   25182.21828988 -.00000021  00000-0  11435-4 0  9998
2 60343  53.1596 163.6574 0001455  83.1293 276.9873 15.30192905 52116
Epoch: 2025-07-01T05:14Z
TLE epoch observation values (Epoch: 2025-07-01T05:14:20.245Z)
Latitude
-0.00005°
Longitude
165.55611°
Altitude
476.015 km
Speed
7.629 km/s
True Right ascension
10h 54m 37s
True Declination
0° 00' 00"
Sunlit
Object was in daylight at epoch
Visualization orbit readout
Latitude
34.3356°
Longitude
-164.79995°
Altitude
476.916 km
Speed
7.632 km/s
Apparent Right ascension
11h 27m 02s
Apparent Declination
-1° 19' 32"
Sunlit
Object is in daylight
Visualization observer readout
Local Sidereal Time
21:46:32
Azimuth
322.983° NNW
Elevation
-45.158°
Doppler factor
1
Orbital elements
Apogee altitude
476.49 km
Perigee altitude
474.496 km
Semi-major axis
6,853.63 km
Eccentricity
0.00015
Inclination
53.1596°
RAAN
163.6574°
Arg. of periapsis
83.1293°
True anomaly
Unknown
Mean anomaly
276.9873°
Eccentric anomaly
Unknown
Mean motion
3.82527 °/min
Orbital period
94.11 mins
BSTAR
0.000011435
Loading maneuver chart data...
Loading SW <> Apogee altitude chart data...
Loading historical data...
Loading historical data...
Loading historical data...
Loading historical data...
Loading historical data...
Loading historical data...
Loading historical data...

STARLINK-32083 Visibility forecast

Observer location: undefined°, undefined°

Span
Click to sort rows by Start time (UTC) header in descending order
Start Az.
Max El. time (UTC)
Max El. Az.
Max El.
End time (UTC)
End Az.
4 mins2025-07-02 00:12:08.075Z161.48° S2025-07-02 00:14:08.075Z126.796° SE14.867°2025-07-02 00:16:08.075Z92.349° ESE
6 mins2025-07-02 01:49:08.075Z245.661° WSW2025-07-02 01:52:08.075Z1.215° NNE38.964°2025-07-02 01:55:08.075Z43.659° NE
5 mins2025-07-02 06:46:08.075Z339.586° N2025-07-02 06:48:08.075Z16.379° NNE19.019°2025-07-02 06:51:08.075Z72.869° E
6 mins2025-07-02 08:24:08.075Z304.468° NW2025-07-02 08:27:08.075Z169.74° S41.686°2025-07-02 08:30:08.075Z138.128° SSE
|